Location: Unspecified
(54.1780°N, 0.0000°E)
Time: 11:01:54
(UTC+00:00)

Explorer 7 - Pass Details

Date: 22 June 2019
Orbit: 485 x 680 km, 50.3° (Epoch: 16 July)

Event Time Altitude Azimuth Distance (km) Brightness Sun altitude
Rises 13:40:21 0° 277° (W) 2,934 10.8 54.2°
Reaches altitude 10° 13:42:49 10° 268° (W) 2,051 10.3 53.9°
Maximum altitude 13:47:02 33° 205° (SSW) 1,126 9.9 53.5°
Drops below altitude 10° 13:51:22 10° 142° (SE) 2,107 10.0 53.1°
Sets 13:53:56 0° 133° (SE) 3,027 10.6 52.8°
